Local,Data,Vel_media,Vel_mediana,Vel_std,Volume
5098,2018-01-03 07:00:00,91.61320754716981,92.0,19.70475927752191,106
5098,2018-01-03 07:04:00,89.98780487804878,86.0,22.665301648679968,82
5098,2018-01-03 07:08:00,85.22077922077922,86.0,22.195082063508536,77
5098,2018-01-03 07:12:00,94.11320754716981,93.0,23.311276958227335,106
5098,2018-01-03 07:16:00,98.1685393258427,97.0,19.4458665595359,89
5098,2018-01-03 07:20:00,85.0234375,83.0,18.854797356803967,128
5098,2018-01-03 07:24:00,86.37404580152672,86.0,20.74732081975613,131
5098,2018-01-03 07:28:00,93.55223880597015,92.0,17.978084889760794,134
5098,2018-01-03 07:32:00,89.33088235294117,92.0,18.742724078488514,136
5098,2018-01-03 07:36:00,94.28205128205128,100.0,25.27839685344201,117
5098,2018-01-03 07:40:00,93.2,97.0,19.848840535110238,120
5098,2018-01-03 07:44:00,91.70093457943925,92.0,22.823033281641706,107
5098,2018-01-03 07:48:00,92.95967741935483,94.0,20.15323379548357,124
5098,2018-01-03 07:52:00,91.66197183098592,92.0,19.795367078850422,142
5098,2018-01-03 07:56:00,92.93959731543625,92.0,17.025111893079718,149
5098,2018-01-03 08:00:00,89.3768115942029,89.0,19.366312424236813,138
5098,2018-01-03 08:04:00,64.82075471698113,69.0,35.74987104067617,106
5098,2018-01-03 08:08:00,86.56488549618321,89.0,17.33520173015732,131
5098,2018-01-03 08:12:00,77.46341463414635,81.0,24.19669828544451,123
5098,2018-01-03 08:16:00,83.54225352112677,83.0,15.111699117067376,142
5098,2018-01-03 08:20:00,68.03076923076924,78.0,28.125260682552593,65
5098,2018-01-03 08:24:00,85.84105960264901,86.0,15.178973489768358,151
5098,2018-01-03 08:28:00,84.6842105263158,86.0,12.348701576360552,133
5098,2018-01-03 08:32:00,87.46153846153847,92.0,18.36744257952759,143
5098,2018-01-03 08:36:00,90.41176470588235,89.0,21.30147276069605,119
5098,2018-01-03 08:40:00,83.875,83.0,17.390829332780246,128
5098,2018-01-03 08:44:00,87.6198347107438,83.0,19.59942864743217,121
5098,2018-01-03 08:48:00,89.36458333333333,89.0,19.353291460391876,96
5098,2018-01-03 08:52:00,91.98360655737704,92.0,14.530664984844114,122
5098,2018-01-03 08:56:00,83.25185185185185,83.0,20.34248495897801,135
5129,2018-01-03 07:00:00,0.0,0.0,0.0,76
5129,2018-01-03 07:04:00,0.0,0.0,0.0,81
5129,2018-01-03 07:08:00,0.0,0.0,0.0,71
5129,2018-01-03 07:12:00,0.0,0.0,0.0,85
5129,2018-01-03 07:16:00,0.0,0.0,0.0,92
5129,2018-01-03 07:20:00,0.0,0.0,0.0,73
5129,2018-01-03 07:24:00,0.0,0.0,0.0,86
5129,2018-01-03 07:28:00,0.0,0.0,0.0,68
5129,2018-01-03 07:32:00,0.0,0.0,0.0,82
5129,2018-01-03 07:36:00,0.0,0.0,0.0,84
5129,2018-01-03 07:40:00,0.0,0.0,0.0,71
5129,2018-01-03 07:44:00,0.0,0.0,0.0,83
5129,2018-01-03 07:48:00,0.0,0.0,0.0,82
5129,2018-01-03 07:52:00,0.0,0.0,0.0,75
5129,2018-01-03 07:56:00,0.0,0.0,0.0,86
5129,2018-01-03 08:00:00,0.0,0.0,0.0,92
5129,2018-01-03 08:04:00,0.0,0.0,0.0,89
5129,2018-01-03 08:08:00,0.0,0.0,0.0,84
5129,2018-01-03 08:12:00,0.0,0.0,0.0,93
5129,2018-01-03 08:16:00,0.0,0.0,0.0,97
5129,2018-01-03 08:20:00,0.0,0.0,0.0,95
5129,2018-01-03 08:24:00,0.0,0.0,0.0,82
5129,2018-01-03 08:28:00,0.0,0.0,0.0,93
5129,2018-01-03 08:32:00,0.0,0.0,0.0,73
5129,2018-01-03 08:36:00,0.0,0.0,0.0,68
5129,2018-01-03 08:40:00,0.0,0.0,0.0,67
5129,2018-01-03 08:44:00,0.0,0.0,0.0,54
5129,2018-01-03 08:48:00,0.0,0.0,0.0,81
5129,2018-01-03 08:52:00,0.0,0.0,0.0,76
5129,2018-01-03 08:56:00,0.0,0.0,0.0,68
5194,2018-01-03 07:00:00,81.8125,87.5,24.70686476804912,16
5194,2018-01-03 07:04:00,66.54166666666667,62.5,23.830888189156063,24
5194,2018-01-03 07:08:00,83.0,86.0,19.13825298382083,23
5194,2018-01-03 07:12:00,75.83333333333333,73.5,22.151680967749822,12
5194,2018-01-03 07:16:00,92.52380952380952,94.0,25.22819662127884,21
5194,2018-01-03 07:20:00,82.28,89.0,23.88604892679686,25
5194,2018-01-03 07:24:00,78.22222222222223,79.5,23.95475037147073,18
5194,2018-01-03 07:28:00,60.666666666666664,59.5,21.332107807936183,18
5194,2018-01-03 07:32:00,83.93333333333334,89.0,18.518202113699093,15
5194,2018-01-03 07:36:00,74.25,82.0,27.528167392690705,16
5194,2018-01-03 07:40:00,75.52380952380952,72.0,19.83839471232249,21
5194,2018-01-03 07:44:00,75.47368421052632,81.0,30.72163266251148,19
5194,2018-01-03 07:48:00,48.05263157894737,50.0,28.153297979712836,19
5194,2018-01-03 07:52:00,77.52380952380952,81.0,27.742781128825296,21
5194,2018-01-03 07:56:00,81.19047619047619,89.0,21.355605932913836,21
5194,2018-01-03 08:00:00,79.625,87.5,30.649225112553818,24
5194,2018-01-03 08:04:00,78.75,84.5,22.81765021404094,32
5194,2018-01-03 08:08:00,78.84,81.0,14.842731105381736,25
5194,2018-01-03 08:12:00,81.3157894736842,89.0,23.11577775647079,19
5194,2018-01-03 08:16:00,51.96875,53.0,23.180197854648377,32
5194,2018-01-03 08:20:00,69.43478260869566,64.0,24.02617150101212,23
5194,2018-01-03 08:24:00,77.13333333333334,78.0,31.682403833100768,30
5194,2018-01-03 08:28:00,47.71875,40.5,25.26789927696736,32
5194,2018-01-03 08:32:00,63.51851851851852,58.0,29.464934009468536,27
5194,2018-01-03 08:36:00,61.26086956521739,69.0,27.158151950957645,23
5194,2018-01-03 08:40:00,59.87096774193548,53.0,22.685886854288757,31
5194,2018-01-03 08:44:00,74.86363636363636,83.5,26.212129970220992,22
5194,2018-01-03 08:48:00,86.65217391304348,89.0,24.90456091060827,23
5194,2018-01-03 08:52:00,67.17142857142858,64.0,20.349137449975196,35
5194,2018-01-03 08:56:00,92.61111111111111,93.0,16.14325169113703,18
5195,2018-01-03 07:00:00,75.35714285714286,81.0,24.39650468804474,70
5195,2018-01-03 07:04:00,70.578125,69.0,15.945087548493854,128
5195,2018-01-03 07:08:00,69.37113402061856,67.0,23.355637964788457,97
5195,2018-01-03 07:12:00,58.675324675324674,61.0,18.69391677534969,154
5195,2018-01-03 07:16:00,64.51098901098901,64.0,18.344083608519195,182
5195,2018-01-03 07:20:00,57.403669724770644,56.0,16.292533660394675,109
5195,2018-01-03 07:24:00,42.02020202020202,42.0,15.942485785472597,99
5195,2018-01-03 07:28:00,62.58282208588957,67.0,17.687903361337174,163
5195,2018-01-03 07:32:00,87.43939393939394,81.0,58.36594970636623,132
5195,2018-01-03 07:36:00,71.49438202247191,72.0,22.20532007079506,178
5195,2018-01-03 07:40:00,51.46835443037975,51.5,15.45145300036936,158
5195,2018-01-03 07:44:00,54.304054054054056,56.0,17.43702323710122,148
5195,2018-01-03 07:48:00,48.920245398773005,50.0,14.38233724506437,163
5195,2018-01-03 07:52:00,37.57664233576642,39.0,14.005630499981716,137
5195,2018-01-03 07:56:00,68.5741935483871,67.0,40.24227737273469,155
5195,2018-01-03 08:00:00,47.64238410596027,47.0,16.10811156772095,151
5195,2018-01-03 08:04:00,52.6797385620915,53.0,17.437351619731363,153
5195,2018-01-03 08:08:00,56.96666666666667,53.0,37.92971540839673,150
5195,2018-01-03 08:12:00,51.745098039215684,53.0,20.44972313921604,153
5195,2018-01-03 08:16:00,43.1985294117647,44.0,16.90795116612789,136
5195,2018-01-03 08:20:00,49.910828025477706,50.0,14.498176629908672,157
5195,2018-01-03 08:24:00,41.417910447761194,39.0,16.847078016861136,134
5195,2018-01-03 08:28:00,50.111111111111114,47.0,16.904746902460776,153
5195,2018-01-03 08:32:00,51.16339869281046,50.0,16.941640352887248,153
5195,2018-01-03 08:36:00,48.46099290780142,44.0,42.29733489248574,141
5195,2018-01-03 08:40:00,39.71186440677966,42.0,14.52795813025522,118
5195,2018-01-03 08:44:00,45.67785234899329,42.0,19.80897573527603,149
5195,2018-01-03 08:48:00,51.384105960264904,50.0,25.752892634201263,151
5195,2018-01-03 08:52:00,51.23376623376623,53.0,22.933775704748562,154
5195,2018-01-03 08:56:00,59.61797752808989,64.0,29.042095473630845,89
5196,2018-01-03 07:00:00,126.0,108.0,57.34806012412277,11
5196,2018-01-03 07:04:00,156.71428571428572,114.0,180.40911991762098,14
5196,2018-01-03 07:08:00,107.25,111.0,9.854625125474657,12
5196,2018-01-03 07:12:00,98.46666666666667,106.0,21.61965595955504,15
5196,2018-01-03 07:16:00,98.17647058823529,100.0,14.921608886601533,17
5196,2018-01-03 07:20:00,118.625,107.0,44.55539623135825,16
5196,2018-01-03 07:24:00,96.5,100.0,14.641801560640564,18
5196,2018-01-03 07:28:00,104.27272727272727,100.0,12.232594313405622,22
5196,2018-01-03 07:32:00,104.5,111.0,21.627143439052077,16
5196,2018-01-03 07:36:00,130.53846153846155,107.0,159.1068146294761,26
5196,2018-01-03 07:40:00,114.3,115.5,20.988969534144907,20
5196,2018-01-03 07:44:00,106.9,104.5,17.374815409848697,20
5196,2018-01-03 07:48:00,107.5,108.0,13.819210839816224,18
5196,2018-01-03 07:52:00,109.5625,111.0,12.082873554470948,16
5196,2018-01-03 07:56:00,97.72727272727273,100.0,18.30896452064349,11
5196,2018-01-03 08:00:00,105.84,111.0,21.982341397888746,25
5196,2018-01-03 08:04:00,153.16666666666666,111.0,157.10403072673927,18
5196,2018-01-03 08:08:00,139.72727272727272,111.0,134.96849079134546,22
5196,2018-01-03 08:12:00,100.22222222222223,100.0,17.544083669284973,27
5196,2018-01-03 08:16:00,101.77777777777777,103.0,11.074340867113747,27
5196,2018-01-03 08:20:00,99.62068965517241,103.0,15.416627834682377,29
5196,2018-01-03 08:24:00,106.11428571428571,100.0,33.62139674861428,35
5196,2018-01-03 08:28:00,104.16,106.0,16.090059042775447,25
5196,2018-01-03 08:32:00,108.1923076923077,100.0,37.03081876574617,26
5196,2018-01-03 08:36:00,104.95652173913044,106.0,9.645904740399917,23
5196,2018-01-03 08:40:00,103.15151515151516,97.0,27.44326102629889,33
5196,2018-01-03 08:44:00,85.35714285714286,86.0,28.97535898951778,28
5196,2018-01-03 08:48:00,133.57142857142858,106.0,127.95063532224088,28
5196,2018-01-03 08:52:00,139.78571428571428,100.0,159.85997510387529,28
5196,2018-01-03 08:56:00,95.20833333333333,94.0,15.505901167442438,24
5197,2018-01-03 07:00:00,63.03431372549019,64.0,14.194767613649939,204
5197,2018-01-03 07:04:00,94.31111111111112,97.0,21.437264294552918,180
5197,2018-01-03 07:08:00,103.36702127659575,101.5,38.5425437230245,188
5197,2018-01-03 07:12:00,100.23529411764706,97.0,64.25686219405624,187
5197,2018-01-03 07:16:00,90.41089108910892,86.0,21.210963095081645,202
5197,2018-01-03 07:20:00,87.42288557213931,86.0,25.153235848133736,201
5197,2018-01-03 07:24:00,72.1924882629108,72.0,20.459244805823747,213
5197,2018-01-03 07:28:00,60.52820512820513,58.0,18.080945553887773,195
5197,2018-01-03 07:32:00,97.92553191489361,100.0,19.446479060331086,188
5197,2018-01-03 07:36:00,82.99,83.0,21.062479440963383,200
5197,2018-01-03 07:40:00,78.87647058823529,83.0,33.648233016054185,170
5197,2018-01-03 07:44:00,94.09268292682927,97.0,21.282327086058785,205
5197,2018-01-03 07:48:00,90.07179487179488,92.0,24.466576704308437,195
5197,2018-01-03 07:52:00,103.01604278074866,103.0,18.311955063147117,187
5197,2018-01-03 07:56:00,98.8495145631068,100.0,17.65776757862564,206
5197,2018-01-03 08:00:00,79.675,81.0,22.48795043068319,200
5197,2018-01-03 08:04:00,66.74885844748859,67.0,18.779159248629202,219
5197,2018-01-03 08:08:00,64.80861244019138,67.0,17.236804386813336,209
5197,2018-01-03 08:12:00,62.35121951219512,64.0,17.980751172328322,205
5197,2018-01-03 08:16:00,64.27586206896552,64.0,16.92097996543881,203
5197,2018-01-03 08:20:00,67.34741784037558,67.0,19.076842016431048,213
5197,2018-01-03 08:24:00,62.66326530612245,61.0,20.674743108837685,196
5197,2018-01-03 08:28:00,55.85,53.0,16.970060721572413,180
5197,2018-01-03 08:32:00,54.62176165803109,53.0,16.828700156688587,193
5197,2018-01-03 08:36:00,53.09944751381215,53.0,15.4923296334296,181
5197,2018-01-03 08:40:00,57.313131313131315,56.0,14.553347663550534,198
5197,2018-01-03 08:44:00,60.32820512820513,56.0,41.5333051596364,195
5197,2018-01-03 08:48:00,59.782828282828284,56.0,18.32056091844086,198
5197,2018-01-03 08:52:00,52.58918918918919,53.0,15.717405606935445,185
5197,2018-01-03 08:56:00,63.45054945054945,61.0,37.98771646080325,182
5198,2018-01-03 07:00:00,110.4,111.0,11.032964959133771,20
5198,2018-01-03 07:04:00,111.52941176470588,114.0,11.164215417231652,17
5198,2018-01-03 07:08:00,111.16666666666667,111.0,15.819756821214192,18
5198,2018-01-03 07:12:00,108.15384615384616,106.0,10.470961065777374,13
5198,2018-01-03 07:16:00,98.94736842105263,100.0,16.389270488173135,19
5198,2018-01-03 07:20:00,111.0,111.0,10.77032961426901,18
5198,2018-01-03 07:24:00,97.81481481481481,97.0,12.228708457613605,27
5198,2018-01-03 07:28:00,112.08333333333333,111.0,17.370080511318793,12
5198,2018-01-03 07:32:00,99.38888888888889,100.0,10.500077808613044,18
5198,2018-01-03 07:36:00,107.36363636363636,108.5,19.71111713039468,22
5198,2018-01-03 07:40:00,108.22222222222223,106.0,13.768228011044213,27
5198,2018-01-03 07:44:00,110.63636363636364,111.0,12.941426485535489,22
5198,2018-01-03 07:48:00,103.66666666666667,103.0,11.415727772670044,24
5198,2018-01-03 07:52:00,104.85714285714286,100.0,14.11483515414089,21
5198,2018-01-03 07:56:00,112.69565217391305,114.0,11.182107390456398,23
5198,2018-01-03 08:00:00,108.74074074074075,108.0,15.341227993654105,27
5198,2018-01-03 08:04:00,109.0,107.0,10.989505483379622,14
5198,2018-01-03 08:08:00,109.36363636363636,111.0,14.045997411719943,22
5198,2018-01-03 08:12:00,118.38095238095238,119.0,14.585870527590014,21
5198,2018-01-03 08:16:00,119.84615384615384,117.0,13.21723816140818,26
5198,2018-01-03 08:20:00,106.22727272727273,108.5,16.23028274313414,22
5198,2018-01-03 08:24:00,106.47619047619048,108.0,14.988725921902258,21
5198,2018-01-03 08:28:00,110.86666666666666,114.0,16.677044388134533,15
5198,2018-01-03 08:32:00,117.1304347826087,114.0,19.65683861529687,23
5198,2018-01-03 08:36:00,111.6086956521739,111.0,10.525895040478126,23
5198,2018-01-03 08:40:00,100.96296296296296,106.0,20.4741515865953,27
5198,2018-01-03 08:44:00,101.78787878787878,103.0,18.14310746495342,33
5198,2018-01-03 08:48:00,111.69565217391305,117.0,14.17884077390319,23
5198,2018-01-03 08:52:00,114.88461538461539,117.0,9.933083803439583,26
5198,2018-01-03 08:56:00,106.36,108.0,13.901079094804116,25
5199,2018-01-03 07:00:00,100.24226804123711,97.0,25.20810929252624,194
5199,2018-01-03 07:04:00,86.35897435897436,89.0,17.628010716732504,195
5199,2018-01-03 07:08:00,98.42162162162163,100.0,12.194330808937028,185
5199,2018-01-03 07:12:00,94.5979381443299,94.0,14.094911288267596,194
5199,2018-01-03 07:16:00,87.64766839378238,86.0,14.422573714706084,193
5199,2018-01-03 07:20:00,93.10606060606061,92.0,18.27077396709604,198
5199,2018-01-03 07:24:00,92.60752688172043,92.0,15.981467216471868,186
5199,2018-01-03 07:28:00,91.61780104712042,92.0,11.92809586349097,191
5199,2018-01-03 07:32:00,82.81382978723404,83.0,18.656833996501433,188
5199,2018-01-03 07:36:00,89.78645833333333,89.0,19.7290872502,192
5199,2018-01-03 07:40:00,91.15135135135135,92.0,18.83823617501553,185
5199,2018-01-03 07:44:00,91.09223300970874,92.0,16.456483276162395,206
5199,2018-01-03 07:48:00,83.52380952380952,86.0,21.09768854652279,189
5199,2018-01-03 07:52:00,86.83977900552486,86.0,17.71915999876972,181
5199,2018-01-03 07:56:00,96.68556701030928,97.0,16.089422971073837,194
5199,2018-01-03 08:00:00,92.70558375634518,92.0,16.779926640195644,197
5199,2018-01-03 08:04:00,92.95876288659794,92.0,17.012289081977514,194
5199,2018-01-03 08:08:00,96.52688172043011,94.0,16.840807195040533,186
5199,2018-01-03 08:12:00,94.64835164835165,94.0,15.028792716901583,182
5199,2018-01-03 08:16:00,94.29281767955801,94.0,14.051785308276942,181
5199,2018-01-03 08:20:00,95.88717948717948,94.0,13.504393700577435,195
5199,2018-01-03 08:24:00,99.16129032258064,100.0,16.751790753862792,186
5199,2018-01-03 08:28:00,97.04864864864865,97.0,14.160677750714363,185
5199,2018-01-03 08:32:00,100.90052356020942,100.0,17.50234720313761,191
5199,2018-01-03 08:36:00,89.1988950276243,89.0,17.797758875613386,181
5199,2018-01-03 08:40:00,76.46103896103897,78.0,27.060844809231707,154
5199,2018-01-03 08:44:00,58.946666666666665,58.0,23.738165307580584,150
5199,2018-01-03 08:48:00,91.28804347826087,89.0,30.669553234513497,184
5199,2018-01-03 08:52:00,92.83246073298429,89.0,40.1106783749963,191
5199,2018-01-03 08:56:00,96.3068783068783,94.0,21.32177503715654,189
5200,2018-01-03 07:00:00,118.625,119.0,9.85816074799622,16
5200,2018-01-03 07:04:00,112.14285714285714,108.0,14.369279400032227,7
5200,2018-01-03 07:08:00,121.85714285714286,120.5,7.724657252611899,14
5200,2018-01-03 07:12:00,116.25,114.0,9.323723407620914,12
5200,2018-01-03 07:16:00,106.11111111111111,112.5,21.10725799030469,18
5200,2018-01-03 07:20:00,114.4,111.0,12.279207929195634,20
5200,2018-01-03 07:24:00,111.56521739130434,114.0,18.157958653179957,23
5200,2018-01-03 07:28:00,117.25,117.0,14.063296761054064,20
5200,2018-01-03 07:32:00,111.81818181818181,112.5,14.45069239941501,22
5200,2018-01-03 07:36:00,107.08333333333333,107.0,11.616766992684276,24
5200,2018-01-03 07:40:00,103.31818181818181,97.0,16.225747803256766,22
5200,2018-01-03 07:44:00,119.80952380952381,122.0,16.78576494419914,21
5200,2018-01-03 07:48:00,109.65217391304348,111.0,14.405203276001519,23
5200,2018-01-03 07:52:00,107.78571428571429,103.0,17.53317107405525,14
5200,2018-01-03 07:56:00,108.14285714285714,106.0,10.692453947928485,21
5200,2018-01-03 08:00:00,107.8,108.0,15.524174696260026,25
5200,2018-01-03 08:04:00,97.26923076923077,100.0,22.76059347610724,26
5200,2018-01-03 08:08:00,101.04,106.0,17.19612359419025,25
5200,2018-01-03 08:12:00,99.85714285714286,98.5,15.55804968667057,28
5200,2018-01-03 08:16:00,116.17241379310344,117.0,17.744353157146,29
5200,2018-01-03 08:20:00,114.0,117.0,14.04538099421754,23
5200,2018-01-03 08:24:00,107.03225806451613,106.0,14.510878381333416,31
5200,2018-01-03 08:28:00,90.72,94.0,23.107574515729688,25
5200,2018-01-03 08:32:00,91.13513513513513,94.0,25.162982249242148,37
5200,2018-01-03 08:36:00,100.18518518518519,94.0,25.281548511843486,27
5200,2018-01-03 08:40:00,108.64,106.0,9.882138769854766,25
5200,2018-01-03 08:44:00,113.13793103448276,111.0,13.759994128764928,29
5200,2018-01-03 08:48:00,83.29729729729729,83.0,23.48979076684742,37
5200,2018-01-03 08:52:00,108.74193548387096,108.0,12.074678027275324,31
5200,2018-01-03 08:56:00,123.0,120.5,14.599927901768629,20
5201,2018-01-03 07:00:00,103.42063492063492,106.0,12.478687863459477,126
5201,2018-01-03 07:04:00,103.16666666666667,103.0,15.8152590519111,114
5201,2018-01-03 07:08:00,105.54166666666667,106.0,13.028666411393905,120
5201,2018-01-03 07:12:00,80.92258064516129,83.0,21.85802342624373,155
5201,2018-01-03 07:16:00,63.173228346456696,67.0,20.494325381148712,127
5201,2018-01-03 07:20:00,65.69354838709677,69.0,22.722853872689296,124
5201,2018-01-03 07:24:00,66.35433070866142,72.0,21.4452153834403,127
5201,2018-01-03 07:28:00,62.60606060606061,70.5,23.083571229309147,132
5201,2018-01-03 07:32:00,64.25954198473282,69.0,19.62399935175903,131
5201,2018-01-03 07:36:00,59.60909090909091,64.0,24.587643444932795,110
5201,2018-01-03 07:40:00,57.357798165137616,64.0,22.029661374887695,109
5201,2018-01-03 07:44:00,47.92982456140351,53.0,18.020990366077516,114
5201,2018-01-03 07:48:00,39.03488372093023,42.0,16.653173288432313,86
5201,2018-01-03 07:52:00,45.927927927927925,44.0,17.963959733417614,111
5201,2018-01-03 07:56:00,52.13186813186813,53.0,23.729123592566722,91
5201,2018-01-03 08:00:00,62.87931034482759,67.0,20.887339694662888,116
5201,2018-01-03 08:04:00,41.40909090909091,39.0,14.980168011301238,88
5201,2018-01-03 08:08:00,44.68518518518518,48.5,15.620887136096245,108
5201,2018-01-03 08:12:00,59.90756302521008,61.0,23.37788017119944,119
5201,2018-01-03 08:16:00,55.91743119266055,53.0,25.26677236872019,109
5201,2018-01-03 08:20:00,51.02479338842975,53.0,19.604617997603423,121
5201,2018-01-03 08:24:00,39.03658536585366,39.0,17.59239813518736,82
5201,2018-01-03 08:28:00,37.71666666666667,40.5,19.820458243233215,60
5201,2018-01-03 08:32:00,32.339622641509436,33.0,15.892600353897668,53
5201,2018-01-03 08:36:00,62.839285714285715,64.0,18.002278920515767,112
5201,2018-01-03 08:40:00,60.831932773109244,67.0,18.29157411271283,119
5201,2018-01-03 08:44:00,58.411764705882355,58.0,20.345701830941923,102
5201,2018-01-03 08:48:00,38.82954545454545,39.0,17.627187459207672,88
5201,2018-01-03 08:52:00,54.2962962962963,56.0,21.855626217734685,108
5201,2018-01-03 08:56:00,91.55681818181819,100.0,24.60625934503389,88
5202,2018-01-03 07:00:00,119.5,119.5,10.317681205316697,12
5202,2018-01-03 07:04:00,112.70588235294117,111.0,8.751890552063259,17
5202,2018-01-03 07:08:00,116.6,117.0,10.755729370234,15
5202,2018-01-03 07:12:00,112.84615384615384,114.0,10.846244771395567,13
5202,2018-01-03 07:16:00,111.72727272727273,111.0,11.510582369867587,22
5202,2018-01-03 07:20:00,115.22727272727273,114.0,8.938583131473825,22
5202,2018-01-03 07:24:00,112.68181818181819,108.0,13.46737279019668,22
5202,2018-01-03 07:28:00,112.23529411764706,106.0,17.700739432876475,17
5202,2018-01-03 07:32:00,111.95,114.0,13.41434817060096,20
5202,2018-01-03 07:36:00,106.81818181818181,108.0,12.823476846844553,22
5202,2018-01-03 07:40:00,111.33333333333333,108.0,10.232589230148017,18
5202,2018-01-03 07:44:00,110.41176470588235,111.0,10.386643006341195,17
5202,2018-01-03 07:48:00,107.125,106.0,9.692276171844483,24
5202,2018-01-03 07:52:00,111.26315789473684,108.0,12.073120305792063,19
5202,2018-01-03 07:56:00,115.3529411764706,111.0,17.760839375709924,34
5202,2018-01-03 08:00:00,118.05882352941177,117.0,10.673978804991686,17
5202,2018-01-03 08:04:00,113.55,114.0,8.623560139158549,20
5202,2018-01-03 08:08:00,112.47826086956522,117.0,16.778962924982718,23
5202,2018-01-03 08:12:00,110.70370370370371,108.0,11.585185549507791,27
5202,2018-01-03 08:16:00,111.44444444444444,111.5,15.838234535535028,18
5202,2018-01-03 08:20:00,113.63157894736842,114.0,10.171914090145963,19
5202,2018-01-03 08:24:00,104.72,103.0,13.50469054316561,25
5202,2018-01-03 08:28:00,103.4375,104.5,18.541909808723545,32
5202,2018-01-03 08:32:00,108.46153846153847,107.0,16.449269331446356,26
5202,2018-01-03 08:36:00,106.36666666666666,101.5,12.248809465957631,30
5202,2018-01-03 08:40:00,96.38095238095238,100.0,13.771260619406599,21
5202,2018-01-03 08:44:00,113.83333333333333,117.0,12.462886078744551,18
5202,2018-01-03 08:48:00,103.02857142857142,100.0,12.722110706967458,35
5202,2018-01-03 08:52:00,114.4,111.0,18.474448927042317,20
5202,2018-01-03 08:56:00,107.65714285714286,111.0,14.364873122723111,35
5203,2018-01-03 07:00:00,109.84782608695652,111.0,16.582086708788303,92
5203,2018-01-03 07:04:00,92.9245283018868,92.0,17.54216586139565,106
5203,2018-01-03 07:08:00,99.63636363636364,100.0,13.805814007765505,110
5203,2018-01-03 07:12:00,104.5798319327731,103.0,12.165173825671468,119
5203,2018-01-03 07:16:00,95.41739130434783,94.0,16.137557049348462,115
5203,2018-01-03 07:20:00,91.81666666666666,89.0,22.020992022065098,120
5203,2018-01-03 07:24:00,94.9765625,92.0,18.02424650592361,128
5203,2018-01-03 07:28:00,94.57142857142857,94.0,16.006762640098415,133
5203,2018-01-03 07:32:00,94.29661016949153,92.0,22.289206050453068,118
5203,2018-01-03 07:36:00,82.2072072072072,81.0,17.40277779139511,111
5203,2018-01-03 07:40:00,83.7156862745098,89.0,26.431071368425084,102
5203,2018-01-03 07:44:00,65.87,64.0,25.420366844423203,100
5203,2018-01-03 07:48:00,94.12380952380953,97.0,20.703351288589847,105
5203,2018-01-03 07:52:00,95.58461538461539,94.0,17.56440402093434,130
5203,2018-01-03 07:56:00,103.3170731707317,103.0,15.849867907176074,123
5203,2018-01-03 08:00:00,93.81746031746032,94.0,14.057254806626103,126
5203,2018-01-03 08:04:00,103.55855855855856,103.0,14.878712483816772,111
5203,2018-01-03 08:08:00,103.37837837837837,100.0,16.44166218872823,111
5203,2018-01-03 08:12:00,102.64,103.0,16.623289005901853,100
5203,2018-01-03 08:16:00,94.98260869565217,94.0,12.144584099901193,115
5203,2018-01-03 08:20:00,101.32432432432432,100.0,11.853010482314506,111
5203,2018-01-03 08:24:00,101.88372093023256,97.0,63.536852975627546,129
5203,2018-01-03 08:28:00,96.390625,94.0,17.630607947945887,128
5203,2018-01-03 08:32:00,92.01739130434783,92.0,19.807398320393585,115